Tracking 30970 objects as of 3-Jul-2025
HD Live streaming from Space Station
objects crossing your sky now

DELTA 1 DEB

Track DELTA 1 DEB now!
10-day predictions


NORAD ID: 21317
Int'l Code: 1975-052AK
Perigee: 963.2 km
Apogee: 1,291.2 km
Inclination: 100.1 °
Period: 107.7 minutes
Semi major axis: 7498 km
RCS: 0.0147 m2 (small)
Launch date: June 12, 1975
Source: United States (US)
Launch site: AIR FORCE WESTERN TEST RANGE (AFWTR)

Note: This is SATELLITE DEBRIS
Your satellite tracking list
Your tracking list is empty




NASA's NSSDC Master Catalog

Two Line Element Set (TLE):
1 21317U 75052AK  25183.48478648  .00001236  00000-0  21416-2 0  9999
2 21317 100.0968 118.9789 0218713  81.6734 347.6103 13.37101397633702
Source of the keplerian elements: AFSPC